Volver al catálogo

METEOR 2-10

ActivoMeteoPO
NORAD 14452·PAYLOAD·🇷🇺 Russia

Lanzado Oct 28, 1983 desde Plesetsk Cosmodrome

Loading…

Próximos Pases (próximas 24 horas)

TLE

ActualizadoSource: Space-Track

Época: Sep 14, 2026, 11:07 UTC

1 14452U 83109A   26257.46335123  .00000085  00000-0  28785-4 0  9993
2 14452  81.1576 266.7657 0089034 303.7615  55.5106 14.27294302230151

Sigue METEOR 2-10 en tiempo real con AllMySat

Download on the App Store